TimeAKST,TemperatureF,Dew PointF,Humidity,Sea Level PressureIn,VisibilityMPH,Wind Direction,Wind SpeedMPH,Gust SpeedMPH,PrecipitationIn,Events,Conditions,WindDirDegrees,DateUTC
12:53 AM,5.0,-6.0,61,29.52,6.0,NE,21.9,31.1,N/A,Snow,Blowing Snow,40,2013-02-20 09:53:00
1:53 AM,3.9,-6.0,64,29.49,6.0,NE,28.8,34.5,N/A,Snow,Blowing Snow,40,2013-02-20 10:53:00
3:53 AM,3.9,-6.0,64,29.46,5.0,NE,23.0,-,N/A,Snow,Blowing Snow,40,2013-02-20 12:53:00
4:53 AM,5.0,-4.0,66,29.44,4.0,NE,29.9,36.8,N/A,Snow,Blowing Snow,40,2013-02-20 13:53:00
5:53 AM,6.1,-4.0,63,29.44,4.0,NE,28.8,34.5,N/A,Snow,Blowing Snow,50,2013-02-20 14:53:00
6:53 AM,7.0,-2.9,64,29.42,4.0,ENE,27.6,38.0,N/A,Snow,Blowing Snow,60,2013-02-20 15:53:00
7:53 AM,6.1,-4.0,63,29.42,4.0,NE,24.2,34.5,N/A,Snow,Blowing Snow,50,2013-02-20 16:53:00
8:53 AM,6.1,-2.9,67,29.41,6.0,NE,28.8,36.8,N/A,Snow,Blowing Snow,40,2013-02-20 17:53:00
9:53 AM,6.1,-5.1,60,29.45,6.0,NNE,17.3,27.6,N/A,Snow,Blowing Snow,30,2013-02-20 18:53:00
10:53 AM,6.1,-5.1,60,29.44,10.0,Variable,3.5,-,N/A,,Partly Cloudy,0,2013-02-20 19:53:00
11:53 AM,10.0,-2.9,56,29.45,10.0,NE,18.4,28.8,N/A,,Scattered Clouds,50,2013-02-20 20:53:00
12:53 PM,8.1,-2.0,64,29.45,10.0,NE,18.4,27.6,N/A,,Scattered Clouds,50,2013-02-20 21:53:00
1:53 PM,10.9,-0.0,61,29.47,10.0,NE,17.3,25.3,N/A,,Scattered Clouds,50,2013-02-20 22:53:00
2:53 PM,10.9,-0.0,61,29.45,10.0,ENE,24.2,35.7,N/A,,Scattered Clouds,60,2013-02-20 23:53:00
3:53 PM,12.2,-0.4,57,29.44,10.0,ENE,19.6,36.8,N/A,,Scattered Clouds,60,2013-02-21 00:53:00
4:53 PM,10.9,-0.9,59,29.45,10.0,East,13.8,28.8,N/A,,Scattered Clouds,80,2013-02-21 01:53:00
5:53 PM,10.0,-0.9,61,29.45,10.0,Variable,3.5,-,N/A,,Scattered Clouds,0,2013-02-21 02:53:00
6:53 PM,8.1,-5.1,55,29.49,10.0,Variable,5.8,-,N/A,,Scattered Clouds,0,2013-02-21 03:53:00
7:53 PM,6.1,-5.1,60,29.49,10.0,WSW,8.1,-,N/A,,Scattered Clouds,240,2013-02-21 04:53:00
8:53 PM,5.0,-6.0,61,29.49,10.0,West,4.6,-,N/A,,Scattered Clouds,280,2013-02-21 05:53:00
9:53 PM,5.0,-6.0,61,29.50,10.0,NE,17.3,-,N/A,,Scattered Clouds,40,2013-02-21 06:53:00
10:53 PM,3.9,-5.1,66,29.50,10.0,Calm,Calm,-,N/A,,Scattered Clouds,0,2013-02-21 07:53:00
11:53 PM,5.0,-6.0,61,29.51,10.0,ENE,11.5,-,N/A,,Scattered Clouds,70,2013-02-21 08:53:00